Find Hubble Space Telescope

NORAD ID: 20580 Int'l Des: 1990-037 Owner: GSFC Country: US operational
LEOCIRCULAR

实时位置

正在加载3D地球...

关于 Hubble Space Telescope

正在加载描述...

即将过境

Passes for default location (London). Set your location on the main map for personalized predictions.

高度历史

Loading altitude history...

两行轨道根数

1 20580U 90037B 26105.41035801 .00003488 00000-0 10894-3 0 9998
2 20580 28.4729 149.3915 0002208 162.5991 197.4680 15.30051403778948
Epoch: Apr 15, 2026 • Age: 12 hours

当前状态

高度 474.1 km
速度 7.63 km/s
星下点 -8.44°S, 172.78°E
发射日期 Apr 24, 1990
运行时间 35.9 years
类型 scientific

技术详情

分类 Payload
质量 7547.00 kg
干质量 7547.00 kg
总质量 10843.00 kg
长度 13.10 m
直径 4.30 m
跨度 13.10 m
形状 Step Cyl + 2 Pan
制造商 LMSC
平台类型 HST
阶段状态 Attached
所有者/国家 GSFC/US

Most Searched